Temperature
25 22 21 22 23 24 24 25 25 26 28 27 26 25 25 25 24 22 21 21 21 21 21 20 20 20 20 19 19 18 18 18 18 18 18 17 17 17 17 17 17 17 17 17
23 22 23 24 25 25 25 25 25 26 27 27 25 25 24 24 23 23 21 21 20 20 20 20 20 19 19 19 19 18 18 18 18 18 18 18 18 17 17 17 17 17 17 17
22 23 25 26 25 25 25 25 25 26 27 26 25 23 23 23 23 22 22 21 21 21 20 20 19 19 19 19 19 18 18 18 18 18 18 17 17 17 17 17 17 17 17 17
23 25 26 26 26 26 25 26 27 27 25 23 24 22 22 22 22 22 21 21 20 20 20 20 20 19 19 19 19 18 18 18 18 18 18 18 17 17 17 17 17 17 17 17
23 25 25 25 26 27 26 27 27 27 24 22 22 22 21 21 21 20 20 20 20 20 20 20 20 19 19 19 18 18 18 17 17 17 17 17 17 17 17 17 17 17 17 17
24 26 26 26 27 28 28 27 25 22 20 21 22 22 21 19 20 20 20 20 20 20 20 20 19 19 18 18 18 18 17 17 17 17 17 17 17 17 17 17 17 17 17 17
23 25 26 27 26 27 26 23 21 22 20 20 21 21 20 20 21 21 20 20 20 20 20 19 19 18 18 18 18 17 17 17 17 17 17 17 17 17 17 17 17 17 17 17
22 23 25 26 26 25 25 22 21 22 21 20 21 20 20 21 21 21 21 21 20 20 20 20 19 18 18 18 18 17 17 17 17 17 17 17 17 17 17 17 17 17 17 17
22 23 26 28 28 26 25 24 21 20 21 20 20 20 20 20 20 21 21 20 19 20 20 20 19 19 18 18 18 18 17 17 17 17 17 17 17 17 17 17 17 17 17 17
22 23 25 27 28 27 26 24 20 20 21 21 20 20 20 20 20 20 20 19 19 19 20 20 19 19 18 18 18 17 17 17 17 17 17 17 17 17 17 17 17 17 17 17
23 22 24 25 27 26 26 25 22 19 20 20 20 20 21 20 20 20 20 20 20 20 20 19 19 19 18 18 18 17 17 17 17 17 17 17 17 17 17 17 17 17 17 17
22 21 22 23 25 26 26 24 21 21 21 19 19 20 22 20 20 20 20 20 20 20 20 19 19 18 18 18 17 17 17 17 17 17 17 17 17 17 17 17 17 17 17 16
23 20 21 22 22 23 24 24 22 20 19 19 20 21 21 20 20 20 20 20 20 20 20 19 19 18 18 18 18 17 17 17 17 17 17 17 17 17 17 17 17 17 16 16
22 19 20 21 21 23 24 24 23 21 19 20 21 21 20 20 19 19 20 21 21 20 19 19 19 18 18 18 18 17 17 17 17 17 17 17 17 17 17 17 16 16 16 16
20 20 22 22 23 24 24 24 24 23 22 21 21 21 20 20 20 20 20 20 20 19 19 19 19 19 18 18 18 18 17 17 17 17 17 17 17 17 16 16 16 16 16 16
18 20 21 21 23 23 23 24 24 23 23 22 22 21 20 20 20 20 20 20 20 19 19 19 19 19 19 18 18 18 18 17 17 17 17 17 17 16 16 16 16 16 16 16
18 19 19 19 21 22 21 22 23 22 22 22 21 20 19 19 18 18 19 19 19 19 19 19 19 19 19 19 19 18 18 17 17 17 17 16 16 16 16 16 16 16 15 15
18 17 16 18 20 20 20 21 22 21 20 20 20 19 19 18 18 18 19 19 19 19 19 19 19 19 19 19 19 18 18 17 17 17 17 16 16 16 16 16 16 15 15 15
17 17 16 16 18 19 21 21 21 20 18 19 18 18 18 18 18 17 18 19 19 19 19 19 19 19 19 18 18 18 18 17 17 17 16 16 16 16 16 15 15 15 15 14
16 16 16 16 18 18 19 20 21 20 17 18 18 17 17 17 16 16 17 18 18 19 19 19 19 19 18 18 18 18 18 17 17 17 16 16 16 16 15 15 15 14 14 13
16 16 16 16 17 18 18 19 20 18 17 17 18 17 17 16 16 17 17 18 18 18 18 18 18 18 18 17 17 17 17 17 16 16 16 15 15 15 15 14 14 13 13 13
15 15 15 15 16 17 17 18 17 16 17 17 17 17 17 17 16 16 16 17 17 17 17 17 17 17 17 17 17 17 16 16 15 15 15 15 14 14 14 13 13 12 12 12
14 14 14 14 15 15 16 16 17 17 17 17 17 17 17 16 15 15 15 15 16 16 16 16 16 15 15 16 16 16 15 15 15 14 14 14 13 13 12 12 12 12 12 11
14 14 14 14 14 15 16 16 17 17 17 17 17 17 17 16 15 15 15 15 14 15 15 14 15 14 14 14 14 14 14 14 14 13 13 12 12 12 12 11 11 11 11 10
14 13 13 13 14 14 15 15 16 16 16 16 16 16 16 15 14 14 14 14 14 14 14 14 14 14 13 13 13 13 13 13 12 12 12 11 11 11 11 10 10 10 10 10
13 13 13 13 13 13 13 14 15 15 15 15 15 15 14 14 14 13 13 13 13 12 12 12 12 12 12 12 12 12 12 12 12 11 11 11 10 10 10 10 9 9 8 8
Wind_Speed
5 4 7 10 10 10 9 12 15 16 11 3 3 3 5 7 9 11 10 10 10 8 6 8 10 12 12 12 12 13 14 13 12 9 8 7 6 6 6 6 9 10 10 10
3 10 14 11 10 11 13 14 14 12 8 2 1 1 1 4 7 11 14 12 11 9 8 9 9 10 11 12 13 13 14 14 12 10 8 6 6 5 5 5 7 10 9 9
12 9 8 12 14 14 15 12 10 9 6 4 2 5 3 1 2 6 9 11 12 13 14 12 11 10 11 12 14 14 13 13 11 10 7 6 5 4 3 4 5 6 9 9
10 14 14 14 14 13 14 15 10 7 3 4 1 2 5 3 1 1 4 7 10 11 11 12 12 11 11 11 12 12 12 11 11 10 10 11 8 6 6 5 5 5 7 8
9 7 10 15 18 14 13 12 7 4 0 2 4 2 5 3 1 3 2 6 8 8 10 11 11 11 10 10 11 11 11 10 10 10 10 10 7 5 5 5 6 5 4 6
12 11 8 11 14 13 10 4 5 5 5 2 4 2 5 3 4 4 2 5 7 8 9 10 9 8 8 9 9 10 11 9 10 10 10 9 10 9 8 7 7 5 4 4
10 13 13 11 12 11 4 2 3 5 5 5 4 2 6 6 5 4 3 5 8 9 10 11 11 10 10 10 10 10 11 10 10 10 10 9 10 11 11 9 8 7 4 4
7 9 8 8 11 10 7 9 8 6 6 5 2 3 6 6 5 3 3 5 7 10 11 12 12 12 11 11 11 11 11 10 10 10 10 9 9 8 7 8 7 7 6 5
8 8 8 8 8 10 7 7 11 8 3 1 3 5 6 3 3 2 1 3 6 10 12 12 12 11 11 11 11 11 12 10 10 10 9 9 9 9 9 8 7 6 6 6
12 7 10 8 3 3 10 8 6 6 4 2 3 3 5 5 4 2 4 5 6 8 10 11 11 11 10 10 10 10 10 11 9 9 9 9 8 9 9 9 9 8 8 7
10 8 8 5 1 3 0 3 5 5 6 7 4 6 7 9 8 7 7 6 8 10 11 11 10 11 10 9 10 9 9 9 8 9 8 8 8 8 8 8 9 9 8 8
6 7 5 7 4 1 3 3 6 4 4 5 5 6 5 7 7 8 7 7 8 9 9 10 10 10 10 10 9 9 9 9 9 9 9 8 8 8 8 8 8 9 9 8
3 6 2 6 7 7 5 4 4 5 4 3 4 5 2 2 3 5 6 7 8 9 9 9 9 10 10 10 10 10 9 9 8 9 9 9 8 8 8 8 7 8 8 7
4 5 6 7 6 2 1 2 3 5 3 2 4 5 3 4 5 6 7 9 9 10 10 11 11 10 10 10 9 9 9 9 9 9 9 9 9 9 8 8 7 7 8 7
5 4 3 2 1 0 0 1 2 2 4 5 5 6 7 9 9 8 7 9 10 10 11 12 13 11 10 10 9 9 9 9 9 10 9 9 8 8 8 8 8 7 7 7
5 3 3 4 5 4 3 3 2 2 0 2 3 2 4 3 4 4 5 8 10 11 12 11 13 13 12 12 12 11 10 10 9 10 9 8 8 8 8 8 8 8 7 6
3 3 3 2 3 5 2 2 0 2 3 1 3 3 1 5 5 5 5 6 9 10 10 11 11 11 11 12 13 12 11 10 10 10 9 8 8 8 8 9 9 8 8 8
4 3 3 2 3 3 7 3 3 6 6 5 4 3 4 5 4 3 3 5 6 7 8 9 9 9 9 9 9 10 10 10 11 10 10 10 10 10 9 10 10 9 9 9
5 7 4 4 3 4 5 4 1 4 4 5 5 6 6 6 6 5 3 2 4 4 6 7 7 7 7 8 10 11 10 10 11 10 10 10 11 11 11 11 10 10 11 11
5 5 6 4 4 4 4 6 2 7 3 4 5 6 4 3 3 1 1 3 4 4 5 6 7 7 7 8 10 11 11 10 10 10 10 10 11 12 12 12 12 11 12 12
5 4 3 4 4 4 4 6 5 4 4 2 3 4 3 1 2 3 3 5 6 6 6 7 8 7 6 7 10 11 10 9 9 10 11 11 11 12 13 12 12 13 14 14
1 1 0 2 3 5 5 5 4 4 2 1 3 3 4 5 5 5 6 6 7 7 7 8 9 8 6 8 12 12 10 9 11 12 13 12 11 11 12 13 13 13 14 14
1 3 3 4 4 2 2 4 3 3 3 2 2 3 6 6 6 7 7 7 7 8 8 7 9 10 8 8 11 14 11 12 14 14 14 13 14 12 12 13 13 12 11 11
2 1 1 1 1 1 4 4 4 4 4 3 4 4 5 6 7 8 8 8 8 9 9 9 11 13 11 10 11 12 12 13 16 16 14 13 14 13 12 10 9 10 9 10
2 0 1 1 1 2 4 4 4 5 5 6 5 5 7 9 9 9 9 9 9 9 9 10 11 13 13 13 13 12 12 15 17 16 14 14 13 13 13 11 9 9 7 8
2 3 3 4 4 2 3 2 1 3 3 5 7 8 8 10 11 11 10 10 11 11 11 12 13 14 14 14 14 13 12 15 16 15 13 12 11 11 12 13 12 15 12 14
Wind_Direction
228 191 231 232 224 228 256 275 280 282 283 272 216 209 205 178 152 155 156 156 162 173 160 153 154 155 155 157 162 165 162 159 154 153 153 152 157 159 158 166 165 160 159 158
269 245 236 236 246 253 262 269 275 286 292 291 200 257 231 176 172 169 164 164 160 157 153 160 159 159 162 163 164 162 163 163 163 162 158 153 151 160 164 161 162 164 162 160
221 242 237 235 248 257 264 257 258 270 302 355 27 347 332 288 141 153 165 163 162 166 167 169 166 166 165 167 169 167 166 166 163 155 142 133 123 121 134 151 163 170 164 159
243 248 252 255 256 246 258 257 255 273 310 302 2 279 299 295 357 137 166 165 167 169 172 168 164 164 170 168 162 159 162 163 160 153 152 155 159 163 175 170 167 163 159 157
241 237 232 243 251 247 242 249 252 263 164 7 360 109 284 328 316 290 218 180 173 174 175 167 162 166 167 161 159 160 161 162 159 158 159 160 160 162 158 154 153 156 159 161
252 268 257 245 262 258 251 287 347 34 67 353 275 185 270 266 236 258 264 194 184 183 172 162 159 157 163 164 163 163 164 165 164 163 164 165 163 162 159 162 164 162 156 159
272 271 261 258 271 281 257 116 4 342 356 262 266 162 242 253 238 208 220 204 191 187 171 164 163 169 173 172 170 167 168 170 171 170 172 172 169 167 170 170 170 165 162 168
233 272 252 229 218 226 226 154 169 207 230 261 306 221 248 257 262 239 219 191 186 178 172 169 172 175 177 175 171 170 173 174 176 177 179 176 173 171 173 173 169 172 175 180
206 249 263 255 236 190 202 197 175 152 174 191 281 284 296 272 313 358 86 145 173 176 173 172 173 175 176 176 177 177 176 177 181 181 177 175 175 173 174 173 171 172 175 177
185 242 281 286 312 229 183 172 109 126 158 223 269 267 248 259 252 193 173 173 177 176 173 174 176 176 177 176 175 176 178 182 182 179 177 176 174 173 171 167 170 170 172 169
177 194 278 338 298 255 128 137 130 135 154 156 209 256 222 211 206 194 190 187 182 174 173 177 177 174 170 167 169 175 177 175 177 175 172 169 169 167 163 166 170 170 169 169
180 162 233 258 270 231 142 159 140 151 226 166 168 255 257 205 195 186 189 188 173 170 168 168 170 165 165 166 170 175 177 176 175 170 165 166 165 163 162 167 168 166 165 170
129 127 152 326 345 6 53 59 107 130 118 135 151 256 283 174 195 194 180 175 169 164 159 156 157 163 166 167 169 172 174 172 167 164 162 162 163 163 165 164 162 157 154 156
110 106 149 183 214 240 37 14 67 95 111 155 188 209 251 217 211 201 180 170 167 162 162 161 162 165 167 168 169 170 171 167 163 162 162 164 167 169 165 155 151 150 149 149
76 98 130 165 223 87 358 34 58 95 173 176 206 192 220 212 197 188 173 160 152 154 164 168 168 167 167 171 173 172 171 169 166 160 162 166 163 158 153 151 147 143 140 145
49 83 58 18 17 31 13 349 1 2 131 182 150 223 263 194 141 134 158 160 158 163 167 169 169 170 175 180 179 175 172 172 167 164 164 159 153 149 148 149 143 138 138 133
42 86 76 326 344 42 333 267 146 11 341 145 160 221 168 119 137 152 158 156 165 170 167 166 168 173 181 184 177 174 171 164 159 159 158 156 152 150 149 146 134 134 132 120
138 108 125 132 57 221 245 261 110 85 46 57 90 91 108 120 112 95 133 148 147 159 161 165 165 170 176 176 170 164 158 155 157 161 162 159 151 146 142 137 134 130 120 111
150 141 129 127 166 269 299 335 42 103 40 22 78 80 81 94 80 38 15 110 136 153 158 159 155 150 155 159 162 154 151 153 155 159 158 155 149 143 135 130 126 120 111 104
49 107 127 137 156 214 260 314 342 99 71 357 87 103 96 80 93 253 359 74 93 97 116 130 133 124 141 153 151 148 151 151 156 155 148 143 139 136 131 129 122 115 111 107
12 34 120 163 191 238 293 320 35 100 207 277 105 119 110 106 174 165 107 83 86 93 102 115 124 130 143 145 138 135 138 142 142 134 130 127 125 126 125 120 116 116 113 108
132 71 202 150 182 236 324 40 94 177 205 104 96 106 108 112 112 114 100 94 94 99 101 111 119 121 119 124 127 124 124 123 118 115 115 115 116 118 117 115 113 114 114 109
146 183 198 194 205 247 26 102 124 128 115 102 107 124 127 125 128 123 107 100 94 97 99 107 113 105 93 98 116 119 118 117 113 107 105 103 99 100 106 111 114 113 113 113
327 20 104 10 301 28 33 45 51 72 89 96 106 121 128 128 125 122 117 107 96 92 97 105 108 104 95 90 94 104 109 111 109 106 102 99 99 95 92 94 103 112 115 118
244 314 103 251 266 25 17 21 48 61 73 80 90 102 122 127 122 121 116 113 107 100 98 100 103 104 103 100 97 98 103 106 104 102 102 99 97 97 90 82 77 91 91 117
214 192 191 220 221 186 251 290 56 93 100 106 105 94 101 116 120 114 111 109 107 103 100 98 98 101 101 100 98 98 102 107 109 108 106 105 105 103 102 99 84 61 79 90
Height
1482 1488 1493 1489 1487 1488 1488 1490 1489 1476 1463 1466 1469 1470 1466 1465 1468 1470 1472 1474 1476 1480 1482 1485 1487 1488 1490 1493 1496 1499 1502 1507 1511 1515 1519 1523 1526 1530 1533 1537 1539 1542 1544 1546
1486 1488 1479 1479 1480 1482 1484 1488 1484 1473 1462 1465 1470 1471 1467 1466 1466 1466 1468 1472 1475 1478 1480 1483 1486 1487 1488 1491 1494 1497 1500 1504 1509 1513 1517 1521 1525 1529 1532 1535 1538 1540 1543 1545
1486 1478 1472 1475 1478 1481 1480 1482 1478 1475 1466 1465 1471 1479 1474 1469 1468 1468 1468 1470 1472 1474 1475 1479 1483 1486 1488 1490 1492 1495 1499 1503 1507 1511 1515 1519 1523 1527 1531 1534 1536 1539 1541 1543
1478 1470 1471 1473 1473 1474 1480 1466 1466 1467 1476 1485 1479 1498 1482 1474 1471 1470 1470 1471 1472 1474 1474 1476 1480 1484 1487 1488 1491 1494 1498 1502 1505 1509 1513 1516 1519 1523 1527 1531 1534 1537 1540 1542
1473 1465 1467 1470 1465 1463 1466 1457 1460 1464 1474 1486 1484 1494 1490 1477 1477 1473 1471 1471 1473 1474 1475 1476 1479 1483 1486 1488 1490 1493 1497 1501 1503 1507 1511 1515 1518 1522 1526 1530 1533 1535 1538 1540
1465 1459 1460 1459 1455 1454 1454 1458 1464 1473 1485 1500 1490 1493 1494 1483 1476 1471 1469 1470 1472 1474 1475 1476 1479 1483 1485 1488 1490 1493 1496 1499 1502 1506 1510 1513 1517 1520 1524 1527 1530 1533 1536 1539
1469 1459 1452 1452 1456 1452 1454 1475 1497 1499 1508 1505 1488 1491 1491 1473 1467 1465 1466 1468 1469 1472 1474 1475 1478 1481 1484 1486 1489 1491 1494 1497 1500 1504 1507 1511 1515 1518 1521 1525 1528 1531 1534 1536
1478 1472 1450 1444 1449 1455 1455 1470 1497 1507 1510 1503 1489 1492 1481 1466 1463 1460 1461 1464 1467 1469 1471 1474 1476 1479 1482 1485 1487 1490 1492 1495 1498 1501 1505 1509 1513 1516 1520 1523 1526 1529 1532 1535
1470 1466 1441 1436 1435 1441 1452 1460 1465 1485 1491 1502 1498 1487 1473 1464 1461 1459 1461 1465 1466 1468 1470 1472 1476 1478 1481 1483 1486 1488 1490 1493 1496 1499 1503 1506 1510 1514 1517 1521 1525 1528 1531 1534
1452 1461 1444 1434 1431 1432 1437 1445 1467 1482 1497 1504 1498 1492 1484 1469 1463 1460 1461 1464 1465 1467 1469 1472 1475 1477 1480 1482 1485 1487 1489 1492 1494 1497 1501 1504 1508 1512 1515 1519 1523 1526 1529 1532
1442 1458 1450 1441 1441 1443 1441 1447 1459 1475 1481 1497 1505 1494 1463 1461 1459 1460 1461 1462 1464 1465 1467 1471 1473 1476 1479 1482 1484 1486 1488 1491 1493 1496 1499 1503 1506 1510 1514 1518 1521 1524 1527 1530
1438 1452 1459 1448 1435 1431 1437 1445 1457 1475 1479 1482 1491 1486 1452 1453 1454 1455 1458 1459 1461 1464 1467 1470 1473 1475 1478 1481 1483 1485 1487 1490 1492 1495 1499 1502 1506 1509 1513 1516 1520 1523 1526 1529
1435 1452 1466 1462 1454 1443 1443 1445 1450 1461 1473 1481 1487 1480 1453 1452 1454 1454 1456 1458 1460 1462 1466 1469 1472 1475 1477 1480 1482 1485 1487 1490 1492 1495 1499 1502 1505 1509 1512 1515 1518 1522 1525 1528
1430 1448 1460 1467 1462 1450 1449 1448 1448 1459 1475 1476 1472 1468 1458 1454 1454 1453 1453 1455 1457 1461 1464 1467 1470 1474 1476 1479 1482 1485 1487 1490 1493 1495 1498 1501 1505 1508 1511 1514 1517 1520 1523 1526
1433 1448 1447 1447 1443 1442 1444 1445 1446 1452 1457 1465 1462 1460 1455 1450 1448 1449 1451 1453 1456 1460 1463 1466 1468 1472 1475 1478 1481 1484 1487 1490 1493 1495 1498 1501 1504 1507 1510 1513 1516 1519 1522 1525
1439 1447 1448 1450 1443 1443 1445 1444 1444 1446 1448 1452 1453 1456 1448 1447 1448 1450 1451 1453 1454 1457 1460 1464 1467 1470 1473 1477 1479 1483 1485 1489 1492 1494 1497 1500 1503 1506 1509 1512 1515 1518 1521 1524
1445 1450 1458 1462 1451 1449 1457 1447 1446 1448 1447 1449 1455 1453 1447 1448 1449 1450 1451 1452 1453 1456 1459 1462 1465 1468 1471 1475 1478 1481 1484 1487 1491 1493 1496 1499 1502 1505 1508 1511 1513 1516 1519 1522
1445 1452 1462 1464 1460 1470 1459 1440 1440 1446 1449 1448 1448 1447 1447 1447 1449 1451 1452 1452 1453 1455 1459 1462 1464 1467 1471 1474 1477 1480 1483 1486 1489 1491 1494 1497 1500 1503 1506 1509 1512 1514 1517 1520
1438 1448 1461 1469 1470 1464 1450 1442 1442 1448 1456 1450 1450 1449 1449 1449 1450 1453 1454 1453 1454 1455 1458 1461 1463 1466 1469 1473 1476 1479 1481 1484 1487 1490 1492 1496 1499 1502 1505 1508 1510 1513 1515 1518
1439 1444 1457 1465 1467 1470 1456 1443 1439 1444 1460 1453 1451 1451 1451 1450 1457 1457 1454 1453 1453 1455 1457 1460 1462 1465 1467 1471 1474 1477 1479 1482 1485 1488 1490 1494 1497 1500 1504 1506 1509 1512 1515 1517
1453 1454 1458 1463 1465 1460 1449 1442 1440 1458 1463 1453 1451 1451 1451 1452 1454 1455 1453 1453 1454 1455 1456 1459 1461 1464 1467 1469 1472 1474 1478 1481 1484 1487 1490 1492 1496 1500 1503 1506 1508 1511 1514 1517
1458 1461 1461 1463 1466 1464 1447 1444 1450 1455 1452 1451 1451 1451 1452 1452 1453 1453 1453 1453 1454 1454 1456 1457 1460 1463 1465 1468 1470 1472 1476 1480 1483 1486 1489 1492 1496 1499 1503 1506 1508 1512 1514 1517
1456 1458 1459 1459 1460 1452 1447 1447 1449 1449 1450 1450 1450 1451 1451 1452 1453 1453 1454 1454 1455 1455 1456 1458 1460 1463 1465 1468 1470 1471 1476 1479 1483 1486 1489 1492 1496 1499 1503 1506 1509 1512 1515 1517
1454 1452 1454 1455 1453 1450 1449 1449 1449 1448 1449 1449 1450 1450 1451 1451 1452 1453 1454 1455 1456 1456 1457 1460 1461 1463 1466 1469 1472 1473 1476 1479 1482 1486 1489 1493 1497 1501 1504 1507 1511 1513 1516 1518
1454 1453 1454 1455 1452 1450 1450 1450 1449 1449 1449 1449 1449 1450 1450 1451 1452 1454 1455 1456 1457 1458 1460 1462 1463 1465 1468 1471 1473 1477 1479 1482 1484 1488 1492 1496 1499 1502 1506 1509 1513 1516 1518 1521
1452 1453 1454 1453 1451 1451 1450 1450 1449 1448 1448 1448 1449 1449 1450 1451 1452 1454 1456 1458 1459 1461 1463 1465 1467 1469 1471 1474 1477 1480 1483 1485 1488 1491 1495 1498 1502 1505 1509 1511 1514 1518 1521 1523